User: anonymous   Login
Location: Ch�tillon
(48.8024°N, 2.2935°E)
Time: 01:35:26
(UTC+00:00)
Language:

Gurwin Techsat 1B - Orbit

View from above orbital plane
View from above orbital plane
View from above satellite
View from above satellite

Ground track
Ground track

The orbit data is extracted from the following two-line orbital elements,

1 25397U 98043D   22180.44597721  .00000002  00000-0  20541-4 0  9990
2 25397  98.8184 130.9460 0002414  80.2374 279.9076 14.23759177245135
Epoch (UTC): 29 June 2022 10:42:12
Eccentricity: 0.0002414
inclination: 98.8184°
perigee height: 811 km
apogee height: 814 km
right ascension of ascending node: 130.9460°
argument of perigee: 80.2374°
revolutions per day: 14.23759177
mean anomaly at epoch: 279.9076°
orbit number at epoch: 24513

The dashed part of the orbit path shows where the satellite is in the earth's shadow,  

DLR